Weather History for PHHI - March, 2013

Change the Weather History Date:

Friday, March 1, 2013

  Actual Average Record
Temperature  
Mean Temperature 68 °F -  
Max Temperature 72 °F 74 °F 80 °F (1999)
Min Temperature 65 °F 61 °F 57 °F (2005)
Cooling Degree Days 4    
Growing Degree Days 18 (Base 50)    
Moisture  
Dew Point 57 °F    
Average Humidity 67    
Maximum Humidity 78    
Minimum Humidity 57    
Precipitation  
Precipitation 0.00 in - - ()
Sea Level Pressure  
Sea Level Pressure 30.13 in    
Wind  
Wind Speed 11 mph (NE)    
Max Wind Speed 17 mph    
Max Gust Speed 23 mph    
Visibility 10 miles    
Events Rain    
Averages and records for this station are not official NWS values.
T = Trace of Precipitation, MM = Missing Value Source: NWS Daily Summary

Daily Weather History Graph

Daily Weather History Graph

Search for Another Location

Airport or City:

Trip Planner

Search our weather history database for the weather conditions in past years. The results will help you decide how hot, cold, wet, or windy it might be!

Date:

Astronomy

Mar. 01, 2013 Rise Set
Actual Time 6:52 AM HST 6:36 PM HST
Civil Twilight 6:30 AM HST 6:58 PM HST
Nautical Twilight 6:04 AM HST 7:24 PM HST
Astronomical Twilight 5:38 AM HST 7:50 PM HST
Moon 10:40 PM HST (3/1) 9:24 AM HST (3/1)
Length of Visible Light 12h 28m
Length of Day
11h 44m
Waning Gibbous, 81% of the Moon is Illuminated
Mar 1
Waning Gibbous
Mar 4
Last Quarter
Mar 11
New
Mar 19
First Quarter
Mar 26
Full

Hourly Weather History & Observations

Time (HST) Temp. Dew Point Humidity Pressure Visibility Wind Dir Wind Speed Gust Speed Precip Events Conditions
1:55 AM 66.9 °F 55.8 °F 67% 30.15 in 10.0 mi North 9.2 mph - N/A   Scattered Clouds
2:55 AM 66.4 °F 55.8 °F 69% 30.13 in 10.0 mi North 5.8 mph - N/A   Partly Cloudy
3:55 AM 66.6 °F 55.0 °F 66% 30.11 in 10.0 mi NNE 13.8 mph 21.9 mph N/A   Partly Cloudy
4:55 AM 65.5 °F 54.5 °F 68% 30.10 in 10.0 mi NE 10.4 mph - N/A   Scattered Clouds
5:55 AM 66.6 °F 55.2 °F 67% 30.10 in 10.0 mi ENE 11.5 mph 20.7 mph N/A   Overcast
6:55 AM 66.2 °F 53.8 °F 64% 30.12 in 10.0 mi ENE 11.5 mph - N/A   Scattered Clouds
8:55 AM 68.7 °F 55.8 °F 63% 30.15 in 10.0 mi ENE 8.1 mph - N/A   Mostly Cloudy
9:24 AM 69.8 °F 57.2 °F 64% 30.15 in 10.0 mi NE 8.1 mph - N/A   Light Drizzle
9:46 AM 68.0 °F 59.0 °F 73% 30.17 in 10.0 mi ENE 11.5 mph - N/A   Overcast
9:49 AM 66.2 °F 59.0 °F 78% 30.17 in 10.0 mi ENE 10.4 mph - N/A   Light Drizzle
9:50 AM 66.2 °F 59.0 °F 78% 30.17 in 10.0 mi ENE 10.4 mph - N/A   Overcast
9:55 AM 67.5 °F 59.2 °F 75% 30.17 in 10.0 mi ENE 10.4 mph - 0.00 in   Overcast
10:55 AM 69.6 °F 57.7 °F 66% 30.17 in 10.0 mi ENE 10.4 mph - N/A   Overcast
11:55 AM 71.2 °F 56.3 °F 59% 30.16 in 10.0 mi NE 11.5 mph - N/A   Mostly Cloudy
12:43 PM 71.6 °F 57.2 °F 60% 30.14 in 8.0 mi ENE 17.3 mph - N/A Rain Light Rain
12:51 PM 69.8 °F 59.0 °F 68% 30.14 in 8.0 mi NE 17.3 mph - N/A   Mostly Cloudy
12:55 PM 70.0 °F 59.5 °F 69% 30.13 in 10.0 mi NE 16.1 mph 23.0 mph 0.00 in   Scattered Clouds
1:55 PM 72.3 °F 58.3 °F 61% 30.11 in 10.0 mi NE 13.8 mph - N/A   Scattered Clouds
2:55 PM 71.4 °F 55.9 °F 58% 30.09 in 10.0 mi ENE 11.5 mph - N/A   Overcast
3:55 PM 72.0 °F 55.8 °F 57% 30.08 in 10.0 mi NE 11.5 mph - N/A   Overcast
4:55 PM 70.9 °F 56.3 °F 60% 30.08 in 10.0 mi ENE 10.4 mph - N/A   Mostly Cloudy
5:55 PM 69.8 °F 57.7 °F 65% 30.08 in 10.0 mi NE 11.5 mph - N/A   Mostly Cloudy
6:55 PM 68.0 °F 56.8 °F 67% 30.09 in 10.0 mi NE 9.2 mph - N/A   Mostly Cloudy
7:04 PM 68.0 °F 57.2 °F 68% 30.09 in 10.0 mi ENE 9.2 mph - N/A   Light Drizzle
7:28 PM 68.0 °F 59.0 °F 73% 30.10 in 10.0 mi East 11.5 mph - N/A   Mostly Cloudy
7:55 PM 67.1 °F 57.0 °F 70% 30.11 in 10.0 mi ENE 15.0 mph - 0.00 in   Clear
8:55 PM 66.6 °F 55.6 °F 68% 30.13 in 10.0 mi East 8.1 mph - N/A   Mostly Cloudy
9:32 PM 68.0 °F 57.2 °F 68% 30.14 in 10.0 mi NE 13.8 mph 19.6 mph N/A   Light Drizzle
9:41 PM 68.0 °F 57.2 °F 68% 30.14 in 10.0 mi NE 12.7 mph - N/A   Mostly Cloudy
9:55 PM 67.6 °F 57.6 °F 70% 30.14 in 10.0 mi NE 13.8 mph - 0.00 in   Scattered Clouds
10:24 PM 68.0 °F 57.2 °F 68% 30.15 in 10.0 mi NE 11.5 mph - N/A   Light Drizzle
10:34 PM 68.0 °F 57.2 °F 68% 30.15 in 10.0 mi ENE 15.0 mph 23.0 mph N/A   Overcast
10:55 PM 67.5 °F 56.8 °F 69% 30.15 in 10.0 mi ENE 13.8 mph - 0.00 in   Overcast
11:55 PM 67.1 °F 54.5 °F 64% 30.14 in 10.0 mi ENE 13.8 mph - N/A   Scattered Clouds